TSO1002 LEBL-ULLI

Flight info

Callsign TSO1002
Flight time N/A
Altitude 34000
Route DALIN3S DALIN N870 DIBER DCT UNANA DCT STP DCT RAPED DCT PIGOS DCT EKSID DCT NOSTA DCT VOG DCT LEGLO DCT BEXOR DCT BRENO M726 KOGOL/N0447F350 N871 NENUM DCT DOLUP DCT OKL DCT LEGAZ DCT TOMTI P733 NIKMI M994 GOMED/K0815F350 DCT NERIG/N0438F350 DCT ASKOR M155 VALGA DCT NUMSU T633 RISAT/K0815F350 T633 KOLET KOLET1W
Aircraft A21N/M-SDE3FGHIRWY/LB1

Departure

Time 2026-05-07 04:10
Airport Josep Tarradellas Barcelona-El Prat Airport (LEBL)

Arrival

Time N/A
Airport Pulkovo Airport (ULLI)
Time Latitude Longitude Altitude Speed Heading
2026-05-07 03:45 41.29228 2.08316 13 ft 0 kts 203°
2026-05-07 03:59 41.29237 2.08321 13 ft 2 kts 203°
2026-05-07 03:59 41.29251 2.08329 13 ft 2 kts 203°
2026-05-07 03:59 41.29265 2.08337 13 ft 2 kts 203°
2026-05-07 03:59 41.29279 2.08345 14 ft 2 kts 202°
2026-05-07 04:00 41.29293 2.08352 14 ft 2 kts 203°
2026-05-07 04:00 41.29303 2.08358 14 ft 0 kts 203°
2026-05-07 04:00 41.29316 2.08364 14 ft 2 kts 182°
2026-05-07 04:00 41.29330 2.08362 14 ft 2 kts 162°
2026-05-07 04:01 41.29344 2.08353 14 ft 2 kts 140°
2026-05-07 04:01 41.29353 2.08339 14 ft 2 kts 120°
2026-05-07 04:01 41.29359 2.08322 15 ft 2 kts 99°
2026-05-07 04:01 41.29359 2.08301 15 ft 2 kts 77°
2026-05-07 04:02 41.29357 2.08293 15 ft 1 kts 67°
2026-05-07 04:02 41.29355 2.08288 15 ft 0 kts 70°
2026-05-07 04:02 41.29355 2.08289 15 ft 0 kts 70°
2026-05-07 04:05 41.29356 2.08289 15 ft 0 kts 70°
2026-05-07 04:06 41.29355 2.08289 15 ft 0 kts 70°
2026-05-07 04:06 41.29358 2.08298 15 ft 2 kts 68°
2026-05-07 04:06 41.29367 2.08335 15 ft 5 kts 82°
2026-05-07 04:07 41.29341 2.08395 13 ft 10 kts 147°
2026-05-07 04:07 41.29265 2.08441 13 ft 13 kts 158°
2026-05-07 04:07 41.29163 2.08429 11 ft 16 kts 199°
2026-05-07 04:07 41.29050 2.08378 12 ft 17 kts 199°
2026-05-07 04:08 41.28925 2.08319 11 ft 19 kts 199°
2026-05-07 04:08 41.28819 2.08272 11 ft 15 kts 198°
2026-05-07 04:08 41.28728 2.08243 11 ft 8 kts 147°
2026-05-07 04:08 41.28725 2.08326 11 ft 9 kts 64°
2026-05-07 04:09 41.28753 2.08405 13 ft 8 kts 64°
2026-05-07 04:09 41.28782 2.08472 14 ft 7 kts 47°
2026-05-07 04:09 41.28824 2.08505 15 ft 0 kts 19°
2026-05-07 04:09 41.28837 2.08511 15 ft 7 kts 19°
2026-05-07 04:10 41.29137 2.08647 14 ft 84 kts 18°
2026-05-07 04:10 41.29906 2.08999 15 ft 149 kts 18°
2026-05-07 04:10 41.31038 2.09499 223 ft 184 kts 19°
2026-05-07 04:10 41.32183 2.10187 1050 ft 181 kts 31°
2026-05-07 04:11 41.33032 2.11323 1912 ft 178 kts 65°
2026-05-07 04:11 41.33183 2.12918 2405 ft 184 kts 103°
2026-05-07 04:11 41.32634 2.14533 2768 ft 197 kts 117°
2026-05-07 04:11 41.31931 2.16165 3160 ft 210 kts 117°
2026-05-07 04:12 41.31233 2.17957 3465 ft 229 kts 114°
2026-05-07 04:12 41.30565 2.19970 3832 ft 245 kts 111°
2026-05-07 04:12 41.29928 2.22121 4342 ft 254 kts 110°
2026-05-07 04:12 41.29307 2.24338 5007 ft 257 kts 109°
2026-05-07 04:13 41.28697 2.26564 5657 ft 260 kts 109°
2026-05-07 04:13 41.28079 2.28844 6294 ft 264 kts 107°
2026-05-07 04:13 41.27800 2.31241 6845 ft 267 kts 79°
2026-05-07 04:13 41.28485 2.33534 7294 ft 273 kts 56°
2026-05-07 04:14 41.29595 2.35600 7827 ft 279 kts 52°
2026-05-07 04:14 41.30770 2.37674 8442 ft 282 kts 52°
2026-05-07 04:14 41.31916 2.39766 9040 ft 285 kts 53°
2026-05-07 04:14 41.33060 2.41929 9603 ft 289 kts 53°
2026-05-07 04:15 41.34183 2.44101 10154 ft 292 kts 54°
2026-05-07 04:15 41.35338 2.46369 10506 ft 304 kts 54°
2026-05-07 04:15 41.36541 2.48755 10766 ft 318 kts 54°
2026-05-07 04:15 41.37795 2.51256 11015 ft 332 kts 55°
2026-05-07 04:16 41.39092 2.53849 11250 ft 345 kts 55°
2026-05-07 04:16 41.40439 2.56551 11514 ft 358 kts 55°
2026-05-07 04:16 41.41854 2.59394 11745 ft 371 kts 55°
2026-05-07 04:16 41.43285 2.62271 11958 ft 383 kts 55°
2026-05-07 04:17 41.44782 2.65284 12183 ft 394 kts 56°
2026-05-07 04:17 41.46319 2.68382 12384 ft 405 kts 56°
2026-05-07 04:17 41.47889 2.71549 12650 ft 413 kts 56°
2026-05-07 04:17 41.49461 2.74725 13079 ft 417 kts 56°
2026-05-07 04:18 41.51041 2.78013 13524 ft 420 kts 58°
2026-05-07 04:18 41.52480 2.81378 13946 ft 423 kts 60°
2026-05-07 04:18 41.53891 2.84828 14357 ft 425 kts 61°
2026-05-07 04:18 41.55306 2.88319 14768 ft 428 kts 61°
2026-05-07 04:19 41.56716 2.91802 15157 ft 431 kts 61°
2026-05-07 04:19 41.58145 2.95331 15528 ft 434 kts 61°
2026-05-07 04:19 41.59579 2.98872 15907 ft 437 kts 61°
2026-05-07 04:19 41.61021 3.02431 16254 ft 440 kts 61°
2026-05-07 04:20 41.62481 3.06037 16612 ft 442 kts 61°
2026-05-07 04:20 41.63940 3.09645 16964 ft 444 kts 61°
2026-05-07 04:20 41.65409 3.13284 17300 ft 447 kts 61°
2026-05-07 04:21 41.68310 3.20685 17924 ft 452 kts 64°
2026-05-07 04:21 41.69626 3.24525 18229 ft 455 kts 65°
2026-05-07 04:21 41.70919 3.28399 18547 ft 457 kts 66°
2026-05-07 04:21 41.72198 3.32256 18856 ft 459 kts 66°
2026-05-07 04:22 41.73492 3.36151 19128 ft 461 kts 65°
2026-05-07 04:22 41.74805 3.40099 19423 ft 463 kts 65°
2026-05-07 04:22 41.76105 3.44006 19684 ft 466 kts 65°
2026-05-07 04:22 41.77427 3.47986 19942 ft 468 kts 65°
2026-05-07 04:23 41.78751 3.51975 20218 ft 470 kts 65°
2026-05-07 04:23 41.80068 3.55947 20461 ft 472 kts 65°
2026-05-07 04:23 41.81408 3.59995 20710 ft 475 kts 65°
2026-05-07 04:23 41.82759 3.64085 20952 ft 477 kts 65°
2026-05-07 04:24 41.84092 3.68123 21207 ft 479 kts 66°
2026-05-07 04:24 41.85447 3.72231 21425 ft 481 kts 66°
2026-05-07 04:24 41.86781 3.76283 21635 ft 483 kts 66°
2026-05-07 04:24 41.88152 3.80455 21850 ft 485 kts 66°
2026-05-07 04:25 41.89505 3.84578 22051 ft 487 kts 66°
2026-05-07 04:25 41.90860 3.88715 22288 ft 488 kts 66°
2026-05-07 04:25 41.92227 3.92897 22595 ft 488 kts 65°
2026-05-07 04:25 41.93577 3.97036 22873 ft 488 kts 65°
2026-05-07 04:26 41.94937 4.01212 23164 ft 488 kts 65°
2026-05-07 04:26 41.96289 4.05366 23445 ft 488 kts 65°
2026-05-07 04:26 41.97650 4.09556 23721 ft 489 kts 65°
2026-05-07 04:26 41.99012 4.13751 24009 ft 489 kts 65°
2026-05-07 04:27 42.00354 4.17891 24276 ft 489 kts 65°
2026-05-07 04:27 42.01718 4.22105 24540 ft 490 kts 65°
2026-05-07 04:27 42.03073 4.26296 24809 ft 490 kts 65°
2026-05-07 04:27 42.04429 4.30503 25101 ft 490 kts 65°
2026-05-07 04:28 42.05765 4.34655 25375 ft 490 kts 65°
2026-05-07 04:28 42.07144 4.38854 25638 ft 490 kts 64°
2026-05-07 04:28 42.08682 4.42982 25885 ft 490 kts 60°
2026-05-07 04:28 42.10348 4.46900 26169 ft 490 kts 57°
2026-05-07 04:29 42.11964 4.50507 26432 ft 490 kts 57°
2026-05-07 04:29 42.13715 4.54372 26680 ft 490 kts 57°
2026-05-07 04:29 42.15431 4.58153 26931 ft 490 kts 57°
2026-05-07 04:29 42.17201 4.62070 27165 ft 490 kts 57°
2026-05-07 04:30 42.18974 4.66010 27411 ft 491 kts 58°
2026-05-07 04:30 42.20723 4.69909 27653 ft 491 kts 58°
2026-05-07 04:30 42.22510 4.73900 27904 ft 491 kts 58°
2026-05-07 04:30 42.24262 4.77826 28131 ft 492 kts 57°
2026-05-07 04:31 42.26012 4.81750 28372 ft 492 kts 57°
2026-05-07 04:31 42.27784 4.85730 28628 ft 492 kts 57°
2026-05-07 04:31 42.29536 4.89670 28886 ft 492 kts 57°
2026-05-07 04:31 42.31292 4.93624 29135 ft 492 kts 58°
2026-05-07 04:32 42.33053 4.97595 29382 ft 492 kts 57°
2026-05-07 04:32 42.34792 5.01524 29607 ft 493 kts 57°
2026-05-07 04:32 42.36569 5.05539 29808 ft 494 kts 57°
2026-05-07 04:32 42.38322 5.09508 30025 ft 495 kts 57°
2026-05-07 04:33 42.40079 5.13491 30262 ft 495 kts 57°
2026-05-07 04:33 42.41839 5.17485 30504 ft 495 kts 57°
2026-05-07 04:33 42.43583 5.21452 30739 ft 495 kts 57°
2026-05-07 04:33 42.45350 5.25476 30980 ft 494 kts 57°
2026-05-07 04:34 42.47107 5.29479 31209 ft 494 kts 57°
2026-05-07 04:34 42.48855 5.33467 31427 ft 494 kts 57°
2026-05-07 04:34 42.50599 5.37450 31638 ft 495 kts 57°
2026-05-07 04:34 42.52355 5.41473 31866 ft 495 kts 57°
2026-05-07 04:35 42.54095 5.45462 32114 ft 494 kts 57°
2026-05-07 04:35 42.55820 5.49420 32342 ft 493 kts 57°
2026-05-07 04:35 42.57570 5.53440 32532 ft 494 kts 57°
2026-05-07 04:35 42.59327 5.57481 32690 ft 495 kts 57°
2026-05-07 04:36 42.61066 5.61484 32844 ft 497 kts 57°
2026-05-07 04:36 42.62833 5.65561 33021 ft 497 kts 58°
2026-05-07 04:36 42.64581 5.69602 33184 ft 498 kts 58°
2026-05-07 04:36 42.66333 5.73658 33339 ft 499 kts 58°
2026-05-07 04:37 42.68075 5.77692 33492 ft 499 kts 58°
2026-05-07 04:37 42.69819 5.81740 33639 ft 500 kts 58°
2026-05-07 04:37 42.71591 5.85856 33789 ft 501 kts 58°
2026-05-07 04:37 42.73339 5.89919 33924 ft 502 kts 58°
2026-05-07 04:38 42.76865 5.98138 33941 ft 503 kts 58°
2026-05-07 04:38 42.80362 6.06316 33951 ft 504 kts 58°
2026-05-07 04:39 42.84192 6.14284 33950 ft 502 kts 51°
2026-05-07 04:39 42.88674 6.21479 33942 ft 498 kts 43°
2026-05-07 04:40 42.93738 6.27823 33924 ft 495 kts 36°
2026-05-07 04:40 42.99042 6.33823 33912 ft 495 kts 36°
2026-05-07 04:41 43.04272 6.39775 33931 ft 495 kts 36°
2026-05-07 04:41 43.09537 6.45828 33931 ft 494 kts 36°
2026-05-07 04:42 43.14769 6.51873 33918 ft 494 kts 36°
2026-05-07 04:42 43.19237 6.57192 33921 ft 496 kts 40°
2026-05-07 04:43 43.23953 6.64084 33922 ft 500 kts 48°
2026-05-07 04:43 43.28132 6.71744 33922 ft 502 kts 52°
2026-05-07 04:44 43.32163 6.79501 33921 ft 502 kts 52°
2026-05-07 04:44 43.36236 6.87269 33926 ft 501 kts 52°
2026-05-07 04:45 43.40300 6.95004 33903 ft 502 kts 52°
2026-05-07 04:45 43.44306 7.02656 33922 ft 502 kts 52°
2026-05-07 04:46 43.48375 7.10449 33921 ft 502 kts 52°
2026-05-07 04:46 43.52414 7.18200 33916 ft 502 kts 52°
2026-05-07 04:47 43.56476 7.26016 33915 ft 502 kts 52°
2026-05-07 04:47 43.60530 7.33843 33910 ft 502 kts 52°
2026-05-07 04:48 43.64556 7.41641 33914 ft 502 kts 52°
2026-05-07 04:48 43.68600 7.49487 33911 ft 502 kts 52°
2026-05-07 04:49 43.72639 7.57345 33916 ft 502 kts 52°
2026-05-07 04:49 43.76648 7.65170 33911 ft 503 kts 53°
2026-05-07 04:50 43.80931 7.72717 33915 ft 500 kts 46°
2026-05-07 04:50 43.85823 7.79446 33909 ft 498 kts 38°
2026-05-07 04:51 43.91216 7.85328 33914 ft 496 kts 33°
2026-05-07 04:51 43.96706 7.90961 33902 ft 495 kts 33°
2026-05-07 04:52 44.02123 7.96558 33911 ft 496 kts 33°
2026-05-07 04:52 44.07634 8.02303 33907 ft 494 kts 34°
2026-05-07 04:53 44.13118 8.08042 33907 ft 493 kts 34°
2026-05-07 04:53 44.18451 8.13638 33919 ft 493 kts 34°
2026-05-07 04:54 44.23823 8.19287 33900 ft 494 kts 34°
2026-05-07 04:54 44.29309 8.25073 33913 ft 495 kts 34°
2026-05-07 04:55 44.34769 8.30844 33911 ft 495 kts 34°
2026-05-07 04:55 44.40263 8.36663 33920 ft 495 kts 34°
2026-05-07 04:56 44.45740 8.42482 33935 ft 495 kts 34°
2026-05-07 04:56 44.51198 8.48295 33923 ft 496 kts 34°
2026-05-07 04:57 44.56590 8.54049 33920 ft 495 kts 34°
2026-05-07 04:57 44.62046 8.59882 33923 ft 503 kts 34°
2026-05-07 04:58 44.67468 8.65696 33940 ft 506 kts 36°
2026-05-07 04:58 44.72944 8.71584 33920 ft 506 kts 36°
2026-05-07 04:59 44.78468 8.77539 33936 ft 507 kts 36°
2026-05-07 04:59 44.84094 8.83617 33938 ft 507 kts 36°
2026-05-07 05:00 44.89645 8.89629 33939 ft 507 kts 36°
2026-05-07 05:00 44.95256 8.95722 33937 ft 508 kts 36°
2026-05-07 05:01 45.00535 9.01631 33950 ft 509 kts 38°
2026-05-07 05:01 45.05999 9.07961 33951 ft 509 kts 38°
2026-05-07 05:02 45.11470 9.14303 33961 ft 509 kts 38°
2026-05-07 05:02 45.16948 9.20643 33950 ft 508 kts 38°
2026-05-07 05:03 45.22248 9.26788 33939 ft 508 kts 38°
2026-05-07 05:03 45.27736 9.33170 33966 ft 509 kts 38°
2026-05-07 05:04 45.33158 9.39490 33949 ft 509 kts 38°
2026-05-07 05:04 45.38547 9.45783 33950 ft 508 kts 38°
2026-05-07 05:05 45.43868 9.52016 33937 ft 509 kts 38°
2026-05-07 05:05 45.49308 9.58403 33927 ft 508 kts 38°
2026-05-07 05:06 45.54714 9.64765 33942 ft 509 kts 38°
2026-05-07 05:06 45.60049 9.71062 33936 ft 509 kts 39°
2026-05-07 05:07 45.65135 9.77079 33955 ft 510 kts 39°